Vorticity
30 28 11 6 11 8 8 10 4 21 -1 10 4 14 8 15 12 12 13 17 21 7 13 19 20 28 6 -8 -2 4 11 2 5 11 15 24 -4 5 7 4 -0 4 8 6
7 11 4 4 11 12 13 11 9 9 13 -7 -2 18 12 10 9 8 13 18 30 13 16 13 29 39 17 7 16 8 6 12 8 5 9 -8 -0 1 5 5 10 9 3 3
-5 20 -9 7 11 24 9 17 9 9 4 19 3 -3 13 -12 21 17 14 18 14 27 1 9 43 -6 -0 -4 8 -10 9 11 9 16 0 6 5 5 7 9 8 1 8 9
-14 3 27 -2 -3 10 8 15 10 13 16 21 10 20 4 6 10 16 28 -3 18 8 19 23 22 11 4 2 -13 3 -11 15 -9 -1 9 -6 7 8 7 7 4 7 7 10
10 1 3 13 12 17 18 4 21 10 -0 9 15 12 16 13 20 -9 26 26 -19 22 6 10 15 13 3 24 -3 -14 19 9 2 7 -14 5 11 10 8 7 6 11 10 7
-5 4 10 2 12 18 17 13 18 23 21 5 7 14 22 10 17 10 11 19 25 40 5 13 29 -2 22 14 3 11 17 27 7 9 8 -3 3 16 2 11 12 12 3 6
19 21 -2 -3 7 20 29 7 8 10 29 -5 -3 20 4 8 9 23 12 7 46 33 8 8 22 -8 36 29 8 5 -7 -5 6 19 21 8 8 14 13 12 5 11 7 4
27 22 -12 -5 -22 15 14 6 12 8 27 19 2 14 11 6 12 2 12 12 16 25 33 26 -10 5 28 14 5 17 12 17 11 -1 -0 14 15 15 10 14 6 0 4 10
0 19 -11 -5 27 10 0 16 -22 20 15 11 8 17 12 17 13 6 11 10 3 16 17 33 31 -0 23 30 25 19 20 20 15 10 19 18 16 12 1 3 6 8 8 5
27 20 -7 1 -3 -10 -22 18 6 12 15 13 6 3 11 15 10 9 8 6 1 12 16 7 18 15 -0 5 7 14 14 16 8 11 17 9 -1 0 6 6 5 6 5 7
22 29 15 2 35 30 19 19 21 -6 4 22 13 9 11 13 12 8 11 1 6 -2 5 24 23 17 15 13 18 15 15 16 9 -2 -1 2 7 7 5 4 6 4 9 3
30 31 30 -11 -26 14 5 13 21 5 9 -4 21 9 16 11 14 21 13 1 18 4 16 18 1 11 13 11 9 8 9 3 1 4 5 11 9 2 6 6 3 6 4 6
23 24 28 13 -10 -23 23 18 9 20 0 11 7 11 18 9 4 12 17 7 16 18 19 8 9 8 5 1 -1 -5 1 5 6 9 12 4 3 7 1 7 4 9 7 9
6 14 19 8 8 7 14 12 15 16 12 17 13 12 15 24 21 8 5 8 16 18 7 1 4 6 6 8 9 10 11 9 10 10 1 5 5 7 8 8 6 10 15 10
5 14 25 27 -25 25 3 -2 3 15 12 5 10 5 11 16 18 22 4 3 -1 4 7 7 8 10 12 12 12 11 12 11 7 1 7 6 4 10 6 10 13 10 5 7
-0 -7 -13 1 5 20 4 14 9 4 9 2 14 18 20 13 18 20 27 25 19 18 14 12 10 10 12 14 14 12 7 8 8 6 2 11 9 8 12 9 7 6 6 4
16 24 19 -9 -1 -2 -6 9 10 13 4 7 12 13 10 8 10 13 12 12 10 10 14 19 19 15 11 14 13 5 4 8 10 9 7 6 11 12 7 6 7 4 2 -1
30 13 11 4 16 -8 13 15 6 11 15 19 16 8 7 13 14 17 18 14 15 17 14 12 11 11 -5 1 6 9 8 6 8 8 8 11 10 7 7 6 5 7 2 3
18 37 27 -13 -16 12 12 6 6 7 -3 15 7 7 19 -1 7 1 -12 16 6 8 10 12 8 -13 6 11 8 4 5 8 9 10 9 6 7 7 4 5 2 2 4 7
-5 10 24 19 16 0 3 5 5 -0 6 -2 8 4 13 6 6 6 7 11 5 3 5 3 5 8 7 3 5 7 8 9 9 6 6 6 5 6 7 0 2 3 10 34
2 -1 2 10 7 5 17 17 11 16 -0 18 -8 15 9 12 2 -1 -3 15 11 3 7 8 7 4 5 7 8 8 9 8 5 6 5 6 7 3 2 4 5 16 35 25
15 9 9 13 8 18 11 7 6 21 23 27 19 18 19 19 24 16 12 7 11 9 4 3 5 7 7 8 9 8 7 6 6 7 8 4 2 3 4 6 22 34 19 14
15 19 24 20 16 13 12 21 21 19 17 14 13 12 8 5 5 7 7 5 3 5 6 6 6 8 8 7 7 7 7 7 6 3 1 2 4 4 11 27 33 20 13 14
9 8 10 9 9 9 8 9 8 6 6 7 8 9 9 8 6 5 5 5 6 6 7 8 7 6 6 6 5 6 4 2 0 1 4 7 14 29 31 32 18 14 14 11
7 6 5 7 7 8 8 7 7 7 7 6 5 5 6 5 4 5 5 5 5 5 5 6 5 5 4 3 1 1 4 5 7 13 14 31 33 34 21 15 14 14 10 13
7 7 6 6 6 5 5 5 5 4 4 4 5 5 5 5 5 5 5 5 4 3 4 4 3 2 2 3 4 9 12 15 22 28 38 31 28 14 13 12 14 9 12 11
6 6 7 5 3 3 3 4 4 5 5 5 3 4 3 5 7 6 5 4 2 -0 0 2 3 4 4 7 14 27 34 31 35 33 27 20 11 12 11 13 10 10 10 11
Height
5448 5453 5460 5467 5473 5478 5484 5494 5497 5511 5514 5521 5525 5529 5535 5539 5543 5546 5550 5555 5564 5571 5576 5583 5588 5599 5610 5622 5632 5639 5643 5651 5657 5666 5671 5676 5682 5687 5690 5693 5695 5695 5697 5698
5442 5447 5453 5461 5468 5475 5484 5490 5494 5502 5507 5517 5521 5523 5529 5533 5537 5539 5543 5548 5555 5563 5568 5574 5581 5593 5603 5614 5624 5631 5639 5646 5653 5658 5661 5667 5674 5678 5680 5683 5684 5685 5686 5687
5436 5442 5451 5463 5467 5474 5478 5483 5491 5496 5510 5511 5514 5518 5523 5526 5529 5532 5535 5540 5547 5555 5561 5568 5577 5587 5597 5606 5616 5625 5633 5639 5645 5650 5653 5659 5664 5666 5670 5672 5673 5674 5675 5676
5430 5438 5450 5457 5463 5467 5473 5482 5486 5494 5500 5504 5507 5512 5515 5519 5524 5528 5530 5535 5542 5549 5555 5563 5572 5582 5590 5596 5606 5616 5624 5633 5637 5642 5645 5649 5653 5657 5659 5661 5662 5664 5665 5665
5425 5433 5448 5455 5458 5464 5472 5480 5483 5490 5493 5497 5500 5505 5510 5513 5519 5526 5529 5532 5537 5544 5549 5558 5566 5574 5585 5594 5601 5609 5616 5622 5627 5630 5633 5637 5643 5647 5650 5652 5653 5654 5654 5655
5420 5429 5443 5449 5457 5462 5469 5475 5478 5483 5488 5493 5498 5503 5507 5509 5515 5520 5523 5528 5533 5539 5544 5552 5561 5568 5578 5587 5595 5602 5607 5611 5615 5618 5623 5628 5633 5638 5641 5643 5644 5645 5645 5644
5415 5424 5439 5447 5453 5458 5466 5471 5473 5478 5483 5489 5495 5501 5502 5507 5513 5518 5523 5526 5529 5532 5541 5546 5553 5563 5569 5577 5583 5589 5595 5599 5604 5609 5614 5621 5626 5629 5632 5634 5635 5635 5634 5633
5407 5417 5436 5443 5447 5455 5461 5466 5471 5476 5480 5484 5490 5497 5500 5504 5511 5516 5521 5525 5527 5529 5536 5543 5550 5558 5565 5570 5574 5580 5586 5593 5597 5602 5609 5614 5616 5619 5622 5625 5625 5625 5623 5622
5401 5414 5431 5438 5448 5455 5459 5465 5470 5474 5478 5480 5487 5493 5498 5502 5509 5514 5520 5524 5527 5530 5535 5542 5548 5554 5561 5567 5572 5577 5582 5588 5594 5599 5602 5605 5609 5613 5614 5615 5615 5613 5613 5611
5398 5415 5427 5437 5445 5452 5456 5461 5467 5471 5476 5479 5485 5490 5495 5500 5505 5511 5517 5522 5525 5528 5533 5539 5545 5551 5557 5563 5568 5572 5577 5581 5586 5592 5596 5599 5603 5604 5604 5605 5604 5603 5601 5598
5399 5409 5424 5438 5444 5449 5454 5459 5464 5469 5474 5479 5483 5488 5494 5499 5503 5509 5514 5519 5524 5528 5533 5539 5543 5547 5554 5559 5563 5568 5573 5579 5583 5586 5590 5592 5594 5595 5596 5595 5594 5591 5589 5585
5398 5409 5423 5435 5441 5447 5453 5457 5461 5466 5472 5477 5482 5486 5491 5497 5502 5507 5511 5516 5522 5527 5531 5535 5542 5546 5551 5556 5560 5565 5570 5574 5576 5580 5583 5584 5586 5587 5586 5584 5582 5579 5576 5572
5399 5410 5423 5435 5442 5447 5452 5456 5460 5465 5470 5477 5481 5485 5489 5494 5500 5505 5509 5514 5520 5524 5530 5534 5539 5544 5549 5554 5558 5561 5566 5568 5571 5573 5576 5577 5577 5576 5574 5572 5571 5569 5566 5562
5400 5411 5424 5435 5441 5447 5452 5457 5461 5464 5471 5476 5480 5485 5489 5493 5498 5503 5508 5512 5518 5523 5529 5534 5537 5541 5545 5549 5553 5557 5559 5561 5563 5565 5566 5567 5567 5566 5565 5564 5561 5558 5554 5549
5401 5413 5424 5434 5442 5449 5453 5457 5461 5465 5470 5475 5479 5483 5488 5493 5497 5501 5506 5511 5517 5521 5525 5529 5533 5538 5542 5545 5547 5550 5552 5554 5556 5557 5558 5559 5559 5557 5555 5553 5551 5546 5542 5537
5404 5415 5426 5435 5443 5447 5453 5457 5462 5467 5471 5476 5479 5483 5487 5492 5495 5500 5504 5508 5513 5518 5522 5526 5529 5532 5536 5539 5542 5544 5547 5549 5551 5551 5551 5550 5548 5546 5544 5542 5538 5533 5529 5524
5409 5418 5427 5435 5442 5448 5454 5459 5464 5468 5472 5476 5480 5483 5487 5491 5496 5501 5504 5508 5512 5515 5518 5521 5524 5528 5531 5534 5536 5538 5540 5540 5541 5543 5541 5540 5538 5536 5535 5531 5526 5522 5517 5512
5412 5420 5428 5437 5444 5450 5456 5461 5465 5469 5473 5477 5481 5485 5489 5492 5496 5500 5503 5505 5508 5512 5515 5518 5521 5523 5526 5528 5529 5531 5533 5533 5533 5532 5531 5530 5528 5526 5524 5521 5516 5509 5503 5496
5418 5424 5432 5440 5446 5452 5456 5461 5465 5469 5474 5477 5480 5484 5488 5492 5495 5498 5500 5503 5506 5509 5512 5515 5517 5520 5522 5524 5525 5526 5525 5524 5524 5523 5521 5520 5518 5515 5511 5507 5502 5496 5489 5482
5421 5427 5435 5440 5447 5452 5457 5461 5464 5469 5473 5476 5480 5483 5486 5490 5493 5496 5498 5501 5503 5506 5509 5511 5514 5516 5516 5516 5516 5516 5515 5515 5514 5513 5511 5509 5506 5504 5500 5496 5491 5484 5478 5470
5426 5430 5436 5441 5447 5451 5456 5460 5464 5467 5471 5474 5477 5480 5483 5486 5489 5492 5495 5497 5499 5501 5503 5505 5506 5506 5506 5507 5507 5506 5506 5505 5504 5503 5501 5500 5498 5495 5491 5485 5479 5472 5467 5461
5430 5435 5439 5443 5448 5452 5455 5458 5460 5464 5467 5469 5472 5476 5479 5482 5485 5487 5489 5492 5493 5495 5496 5497 5498 5498 5499 5499 5498 5498 5497 5496 5495 5494 5492 5490 5487 5483 5478 5473 5468 5464 5459 5455
5433 5437 5441 5444 5447 5450 5452 5455 5460 5463 5465 5468 5471 5474 5477 5479 5481 5482 5484 5486 5487 5488 5489 5490 5490 5490 5490 5489 5489 5488 5487 5487 5486 5484 5481 5478 5474 5471 5468 5465 5461 5457 5454 5451
5437 5440 5443 5445 5448 5451 5454 5457 5460 5462 5464 5467 5469 5472 5473 5475 5476 5477 5478 5479 5480 5480 5480 5480 5480 5480 5480 5480 5479 5478 5477 5475 5473 5471 5468 5466 5464 5461 5459 5456 5454 5451 5449 5445
5442 5444 5446 5449 5451 5454 5457 5459 5460 5461 5463 5465 5466 5467 5469 5470 5470 5470 5471 5471 5471 5470 5471 5470 5470 5469 5469 5468 5466 5465 5464 5462 5461 5459 5457 5455 5454 5452 5451 5450 5448 5445 5443 5440
5445 5446 5448 5450 5452 5454 5456 5457 5459 5460 5460 5461 5462 5463 5463 5463 5463 5464 5463 5462 5462 5461 5460 5459 5458 5457 5455 5454 5453 5452 5450 5448 5447 5446 5446 5446 5446 5446 5445 5445 5444 5440 5438 5436
5446 5448 5449 5451 5452 5453 5454 5455 5455 5455 5456 5456 5455 5455 5455 5455 5454 5453 5452 5451 5450 5448 5446 5444 5442 5440 5438 5437 5435 5434 5434 5433 5434 5436 5438 5440 5441 5441 5440 5441 5439 5436 5434 5432